• In Italy
  • List of Countries
  • For 7 days
  • Water Temperature
  • Satellite Maps
  • Weather Map
  • Weather Widgets
  • user-avatar
    Login

    Hourly Weather Idzhewan

    Today, 20 September, Thursday

    Time Temperature Precipitation Wind Pressure Humidity
    00:00 +15°C° 0 mm 1 mps 697 mmHg 89%
    01:00 +15°C° 0 mm 1 mps 697 mmHg 90%
    02:00 +15°C° 0 mm 1 mps 697 mmHg 90%
    03:00 +15°C° 0 mm 1 mps 696 mmHg 90%
    04:00 +15°C° 0 mm 1 mps 696 mmHg 90%
    05:00 +15°C° 0 mm 1 mps 697 mmHg 90%
    06:00 +15°C° 0 mm 1 mps 697 mmHg 90%
    07:00 +16°C° 0 mm 1 mps 697 mmHg 82%
    08:00 +18°C° 0 mm 2 mps 697 mmHg 75%
    09:00 +20°C° 0 mm 2 mps 697 mmHg 66%
    10:00 +21°C° 0 mm 2 mps 697 mmHg 62%
    11:00 +23°C° 0 mm 2 mps 697 mmHg 59%
    12:00 +24°C° 0 mm 3 mps 697 mmHg 55%
    13:00 +24°C° 0 mm 3 mps 697 mmHg 55%
    14:00 +24°C° 0 mm 3 mps 697 mmHg 55%
    15:00 +25°C° 0 mm 3 mps 696 mmHg 54%
    16:00 +22°C° 0 mm 3 mps 696 mmHg 60%
    17:00 +21°C° 0 mm 2 mps 696 mmHg 66%
    18:00 +19°C° 0 mm 2 mps 696 mmHg 72%
    19:00 +19°C° 0 mm 2 mps 696 mmHg 76%
    20:00 +19°C° 0 mm 1 mps 696 mmHg 79%
    21:00 +18°C° 0 mm 1 mps 697 mmHg 83%
    22:00 +18°C° 0 mm 1 mps 697 mmHg 84%
    23:00 +18°C° 0 mm 1 mps 697 mmHg 85%

    Tomorrow, 21 September, Friday

    Time Temperature Precipitation Wind Pressure Humidity
    00:00 +18°C° 0 mm 1 mps 697 mmHg 86%
    01:00 +16°C° 0 mm 1 mps 696 mmHg 87%
    02:00 +16°C° 0 mm 1 mps 696 mmHg 88%
    03:00 +16°C° 0 mm 1 mps 696 mmHg 90%
    04:00 +16°C° 0 mm 1 mps 696 mmHg 90%
    05:00 +16°C° 0 mm 1 mps 696 mmHg 91%
    06:00 +16°C° 0 mm 1 mps 696 mmHg 91%
    07:00 +18°C° 0 mm 1 mps 696 mmHg 85%
    08:00 +19°C° 0 mm 1 mps 696 mmHg 79%
    09:00 +19°C° 0 mm 2 mps 696 mmHg 73%
    10:00 +20°C° 0 mm 2 mps 696 mmHg 68%
    11:00 +23°C° 0 mm 2 mps 696 mmHg 63%
    12:00 +24°C° 0 mm 2 mps 696 mmHg 59%
    13:00 +24°C° 0.2 mm 2 mps 696 mmHg 57%
    14:00 +25°C° 0.2 mm 2 mps 695 mmHg 55%
    15:00 +25°C° 0.2 mm 2 mps 695 mmHg 53%
    16:00 +24°C° 0.3 mm 2 mps 695 mmHg 59%
    17:00 +23°C° 0.3 mm 2 mps 695 mmHg 65%
    18:00 +20°C° 0.3 mm 2 mps 694 mmHg 70%
    19:00 +20°C° 0 mm 1 mps 695 mmHg 74%
    20:00 +20°C° 0 mm 1 mps 695 mmHg 77%
    21:00 +19°C° 0 mm 1 mps 696 mmHg 80%
    22:00 +19°C° 0 mm 1 mps 696 mmHg 81%
    23:00 +18°C° 0 mm 1 mps 696 mmHg 82%

    Day after tomorrow, 22 September, Saturday

    Time Temperature Precipitation Wind Pressure Humidity
    00:00 +18°C° 0 mm 1 mps 696 mmHg 83%
    01:00 +18°C° 0 mm 1 mps 696 mmHg 84%
    02:00 +16°C° 0 mm 1 mps 696 mmHg 85%
    03:00 +16°C° 0 mm 1 mps 696 mmHg 86%
    04:00 +16°C° 0 mm 1 mps 696 mmHg 86%
    05:00 +16°C° 0 mm 1 mps 696 mmHg 86%
    06:00 +16°C° 0 mm 1 mps 696 mmHg 85%
    07:00 +18°C° 0 mm 1 mps 696 mmHg 80%
    08:00 +20°C° 0 mm 1 mps 696 mmHg 75%
    09:00 +20°C° 0 mm 2 mps 696 mmHg 69%
    10:00 +21°C° 0.2 mm 2 mps 696 mmHg 66%
    11:00 +23°C° 0.2 mm 2 mps 696 mmHg 63%
    12:00 +24°C° 0.2 mm 2 mps 696 mmHg 60%
    13:00 +24°C° 0.7 mm 2 mps 695 mmHg 60%
    14:00 +24°C° 0.7 mm 2 mps 695 mmHg 60%
    15:00 +24°C° 0.7 mm 3 mps 695 mmHg 60%
    16:00 +23°C° 0.4 mm 2 mps 695 mmHg 67%
    17:00 +21°C° 0.4 mm 2 mps 695 mmHg 74%
    18:00 +20°C° 0.4 mm 2 mps 695 mmHg 81%
    19:00 +20°C° 0.5 mm 1 mps 695 mmHg 83%
    20:00 +20°C° 0.5 mm 1 mps 696 mmHg 86%
    21:00 +19°C° 0.5 mm 1 mps 696 mmHg 88%
    22:00 +19°C° 0.3 mm 1 mps 696 mmHg 88%
    23:00 +19°C° 0.3 mm 1 mps 696 mmHg 88%

    23 September, Sunday

    Time Temperature Precipitation Wind Pressure Humidity
    00:00 +19°C° 0.3 mm 1 mps 696 mmHg 88%
    01:00 +19°C° 0.2 mm 1 mps 696 mmHg 88%
    02:00 +19°C° 0.2 mm 1 mps 696 mmHg 87%
    03:00 +18°C° 0.2 mm 2 mps 696 mmHg 86%
    04:00 +18°C° 0.1 mm 1 mps 696 mmHg 86%
    05:00 +18°C° 0.1 mm 1 mps 696 mmHg 85%
    06:00 +18°C° 0.1 mm 1 mps 696 mmHg 84%
    07:00 +19°C° 0 mm 1 mps 696 mmHg 80%
    08:00 +20°C° 0 mm 1 mps 696 mmHg 75%
    09:00 +21°C° 0 mm 1 mps 696 mmHg 71%
    10:00 +21°C° 0.2 mm 2 mps 696 mmHg 66%
    11:00 +23°C° 0.2 mm 2 mps 695 mmHg 62%
    12:00 +24°C° 0.2 mm 2 mps 695 mmHg 57%
    13:00 +25°C° 0.3 mm 2 mps 695 mmHg 55%
    14:00 +25°C° 0.3 mm 2 mps 694 mmHg 53%
    15:00 +26°C° 0.3 mm 2 mps 694 mmHg 51%
    16:00 +24°C° 0.3 mm 2 mps 694 mmHg 57%
    17:00 +23°C° 0.3 mm 1 mps 694 mmHg 63%
    18:00 +21°C° 0.3 mm 1 mps 694 mmHg 69%
    19:00 +21°C° 0.4 mm 1 mps 694 mmHg 72%
    20:00 +20°C° 0.4 mm 1 mps 695 mmHg 74%
    21:00 +19°C° 0.4 mm 1 mps 695 mmHg 77%
    22:00 +19°C° 0 mm 1 mps 695 mmHg 78%
    23:00 +19°C° 0 mm 1 mps 695 mmHg 80%

    24 September, Monday

    Time Temperature Precipitation Wind Pressure Humidity
    00:00 +18°C° 0 mm 1 mps 695 mmHg 82%
    01:00 +18°C° 0 mm 1 mps 695 mmHg 83%
    02:00 +18°C° 0 mm 1 mps 695 mmHg 84%
    03:00 +16°C° 0 mm 1 mps 695 mmHg 85%
    04:00 +16°C° 0 mm 1 mps 695 mmHg 84%
    05:00 +16°C° 0 mm 1 mps 695 mmHg 84%
    06:00 +16°C° 0 mm 1 mps 695 mmHg 84%
    07:00 +19°C° 0 mm 1 mps 695 mmHg 76%
    08:00 +20°C° 0 mm 2 mps 696 mmHg 67%
    09:00 +21°C° 0 mm 2 mps 696 mmHg 59%
    10:00 +24°C° 0 mm 2 mps 696 mmHg 53%
    11:00 +25°C° 0 mm 2 mps 696 mmHg 47%
    12:00 +26°C° 0 mm 3 mps 696 mmHg 41%
    13:00 +27°C° 0 mm 3 mps 695 mmHg 40%
    14:00 +27°C° 0 mm 3 mps 695 mmHg 40%
    15:00 +27°C° 0 mm 3 mps 695 mmHg 39%
    16:00 +25°C° 0 mm 2 mps 695 mmHg 46%
    17:00 +23°C° 0 mm 2 mps 694 mmHg 52%
    18:00 +21°C° 0 mm 1 mps 694 mmHg 58%
    19:00 +21°C° 0 mm 1 mps 694 mmHg 60%
    20:00 +20°C° 0 mm 1 mps 695 mmHg 63%
    21:00 +19°C° 0 mm 1 mps 695 mmHg 66%
    22:00 +19°C° 0 mm 1 mps 695 mmHg 68%
    23:00 +18°C° 0 mm 1 mps 694 mmHg 69%

    25 September, Tuesday

    Time Temperature Precipitation Wind Pressure Humidity
    00:00 +18°C° 0 mm 1 mps 694 mmHg 71%
    01:00 +16°C° 0 mm 1 mps 694 mmHg 72%
    02:00 +16°C° 0 mm 1 mps 694 mmHg 73%
    03:00 +16°C° 0 mm 1 mps 693 mmHg 74%
    04:00 +16°C° 0 mm 1 mps 693 mmHg 75%
    05:00 +15°C° 0 mm 1 mps 693 mmHg 75%
    06:00 +15°C° 0 mm 1 mps 693 mmHg 75%
    07:00 +18°C° 0 mm 1 mps 693 mmHg 67%
    08:00 +21°C° 0 mm 1 mps 694 mmHg 58%
    09:00 +23°C° 0 mm 1 mps 694 mmHg 50%
    10:00 +24°C° 0 mm 1 mps 694 mmHg 46%
    11:00 +26°C° 0 mm 2 mps 693 mmHg 42%
    12:00 +27°C° 0 mm 2 mps 693 mmHg 38%
    13:00 +27°C° 0 mm 2 mps 693 mmHg 37%
    14:00 +28°C° 0 mm 2 mps 692 mmHg 37%
    15:00 +28°C° 0 mm 2 mps 692 mmHg 36%
    16:00 +26°C° 0 mm 1 mps 692 mmHg 43%
    17:00 +24°C° 0 mm 1 mps 692 mmHg 50%
    18:00 +22°C° 0 mm 1 mps 692 mmHg 57%
    19:00 +22°C° 0 mm 1 mps 693 mmHg 60%
    20:00 +21°C° 0 mm 1 mps 693 mmHg 64%
    21:00 +20°C° 0 mm 1 mps 693 mmHg 68%
    22:00 +20°C° 0 mm 1 mps 694 mmHg 69%
    23:00 +19°C° 0 mm 1 mps 694 mmHg 70%
    Show more